Regional Weather Roundup
Issued by NWS

Home | Current Version | Previous Version | Text Only | Print | Product List | Glossary Off
Versions: 1 2 3 4 5 6 7 8 9 10 11 12 13 14 15 16 17 18 19 20 21 22 23 24 25 26 27 28 29 30 31 32 33 34 35 36 37 38 39 40 41 42 43 44 45 46 47 48 49 50

000
ASUS43 KOAX 010610
RWRNE

WEATHER ROUNDUP FOR NEBRASKA
NATIONAL WEATHER SERVICE OMAHA NE
1200 AM CST SUN MAR 01 2015

NOTES: SATELLITE DATA IS BEING USED TO AUGMENT CLOUD COVER ABOVE
       12000 FEET.
       "FAIR" INDICATES FEW OR NO CLOUDS BELOW 12,000 FEET WITH NO
       SIGNIFICANT WEATHER AND/OR OBSTRUCTIONS TO VISIBILITY.

  * THESE STATIONS DO NOT REPORT WEATHER SUCH AS RAIN...SNOW OR FOG.

NEZ001>004-019>022-054>056-010700-
NEBRASKA PANHANDLE

CITY           SKY/WX    TMP DP  RH WIND       PRES   REMARKS
SCOTTSBLUFF    CLOUDY    23  14  68 NE9       30.09S WCI  13
6HR MIN TEMP:  21; 6HR MAX TEMP:  31;

ALLIANCE       MOCLDY    17  12  80 NE9       30.10R WCI   6
6HR MIN TEMP:  16; 6HR MAX TEMP:  28;

CHADRON        CLOUDY    20   9  62 NE13      30.18R WCI   7
6HR MIN TEMP:  19; 6HR MAX TEMP:  29;

KIMBALL        CLOUDY    21  16  81 CALM      30.02R
SIDNEY         MOCLDY    19  15  84 S5        30.07R WCI  12
6HR MIN TEMP:  17; 6HR MAX TEMP:  26;

$$

NEZ057>060-069>072-079>082-010700-
SOUTHWEST NEBRASKA

CITY           SKY/WX    TMP DP  RH WIND       PRES   REMARKS
NORTH PLATTE   CLOUDY    17  10  74 S6        30.19S WCI   9
6HR MIN TEMP:  15; 6HR MAX TEMP:  26;

IMPERIAL         N/A     17  10  74 SE7       30.14F WCI   8
6HR MIN TEMP:  14; 6HR MAX TEMP:  23;

LEXINGTON      PTCLDY    15  12  88 S6        30.24R WCI   7
MCCOOK         MOCLDY    22  15  75 S8        30.21S WCI  12
6HR MIN TEMP:  22; 6HR MAX TEMP:  26;

OGALLALA       CLOUDY    20  13  74 CALM      30.14F
$$

NEZ005>010-023>029-035>040-094-010700-
NORTH CENTRAL NEBRASKA

CITY           SKY/WX    TMP DP  RH WIND       PRES   REMARKS
VALENTINE      MOCLDY    19   5  54 N6        30.20R WCI  11
6HR MIN TEMP:  19; 6HR MAX TEMP:  31;

AINSWORTH      PTCLDY    14   5  68 N8        30.19S WCI   2
BROKEN BOW     PTCLDY    17  10  74 SW5       30.21S WCI  10
6HR MIN TEMP:  16; 6HR MAX TEMP:  27;

O`NEILL        PTCLDY    17  11  77 SW3       30.22S
ORD            CLEAR     12   7  80 CALM      30.23F
6HR MIN TEMP:   9; 6HR MAX TEMP:  28;

THEDFORD       PTCLDY    17  11  76 CALM      30.18S
$$

NEZ041-046>049-061>064-073>077-083>087-010700-
SOUTH CENTRAL NEBRASKA

CITY           SKY/WX    TMP DP  RH WIND       PRES   REMARKS
GRAND ISLAND   CLEAR     15  12  88 S7        30.27F WCI   5
6HR MIN TEMP:  14; 6HR MAX TEMP:  22;

AURORA         CLEAR     15  11  86 S8        30.28F WCI   3
HASTINGS       CLEAR     15  12  88 S6        30.26S WCI   6
6HR MIN TEMP:  15; 6HR MAX TEMP:  20;

HEBRON         FLURRIES  20  15  80 CALM      30.34R
HOLDREGE       PTCLDY    14  12  90 S6        30.24F WCI   5
KEARNEY *      CLEAR     14  10  85 S8        30.25F WCI   3
YORK           PTCLDY    14  10  85 SW7       30.31R WCI   4
$$

NEZ011>018-030>034-042>045-010700-
NORTHEAST NEBRASKA

CITY           SKY/WX    TMP DP  RH WIND       PRES   REMARKS
NORFOLK        CLEAR     17  13  84 SW14      30.28R WCI   3
6HR MIN TEMP:  17; 6HR MAX TEMP:  24;

ALBION         PTCLDY    13   9  83 S5        30.27S WCI   5
BLAIR          CLOUDY    22  16  77 S12       30.31S WCI  11
COLUMBUS *     CLEAR     16   7  67 SW7       30.32R WCI   6
FREMONT        CLEAR     21  16  81 S6        30.33R WCI  13
TEKAMAH        CLEAR     16  13  88 S9        30.33  WCI   4
6HR MIN TEMP:  16; 6HR MAX TEMP:  24;

WAYNE          CLEAR     15  11  84 SW9       30.29R WCI   4
$$

NEZ050>053-065>068-078-088>093-010700-
SOUTHEAST NEBRASKA

CITY           SKY/WX    TMP DP  RH WIND       PRES   REMARKS
LINCOLN        CLOUDY    21  14  74 SW10      30.35F WCI  10
6HR MIN TEMP:  21; 6HR MAX TEMP:  23;

OMAHA EPPLEY   FLURRIES  23  15  71 SW8       30.36S WCI  14
6HR MIN TEMP:  23; 6HR MAX TEMP:  23; 6HR PCP: TRACE;

BEATRICE       CLOUDY    21  18  87 S5        30.33F WCI  15
FALLS CITY     CLOUDY    18  14  84 CALM      30.37S
6HR MIN TEMP:  16; 6HR MAX TEMP:  23;

NEBRASKA CITY  CLOUDY    21  17  82 SW3       30.35S
PLATTSMOUTH    CLOUDY    21  17  83 S6        30.35S WCI  14
$$

NEZ044-045-051>053-067-010700-
OMAHA AREA

CITY           SKY/WX    TMP DP  RH WIND       PRES   REMARKS
OMAHA EPPLEY   FLURRIES  23  15  71 SW8       30.36S WCI  14
6HR MIN TEMP:  23; 6HR MAX TEMP:  23; 6HR PCP: TRACE;

BLAIR          CLOUDY    22  16  77 S12       30.31S WCI  11
FREMONT        CLEAR     21  16  81 S6        30.33R WCI  13
MILLARD        CLOUDY    23  15  71 SW6       30.35S WCI  16
OFFUTT AFB     CLOUDY    22  15  74 SW5       30.35S WCI  16
PLATTSMOUTH    CLOUDY    21  17  83 S6        30.35S WCI  14
WAHOO          MOCLDY    20  13  74 SW8       30.34R WCI  10
$$



USA.gov is the U.S. government's official web portal to all federal, state and local government web resources and services.